TimeCDT,TemperatureF,Dew PointF,Humidity,Sea Level PressureIn,VisibilityMPH,Wind Direction,Wind SpeedMPH,Gust SpeedMPH,PrecipitationIn,Events,Conditions,WindDirDegrees,DateUTC
12:15 AM,35.6,30.2,81,30.11,10.0,West,9.2,-,N/A,,Clear,270,2013-10-19 05:15:00
12:35 AM,35.6,30.2,81,30.12,10.0,West,10.4,-,N/A,,Clear,280,2013-10-19 05:35:00
12:55 AM,33.8,28.4,81,30.11,10.0,West,9.2,-,0.01,,Clear,280,2013-10-19 05:55:00
1:15 AM,33.8,28.4,81,30.11,10.0,West,9.2,-,N/A,,Clear,280,2013-10-19 06:15:00
1:35 AM,33.8,28.4,81,30.11,10.0,West,10.4,-,N/A,,Clear,280,2013-10-19 06:35:00
1:55 AM,35.6,28.4,75,30.10,10.0,West,10.4,-,N/A,,Clear,280,2013-10-19 06:55:00
2:15 AM,35.6,28.4,75,30.10,10.0,West,8.1,-,N/A,,Clear,280,2013-10-19 07:15:00
2:35 AM,33.8,28.4,81,30.09,10.0,WNW,8.1,-,N/A,,Clear,290,2013-10-19 07:35:00
2:55 AM,33.8,26.6,75,30.09,10.0,West,8.1,-,N/A,,Clear,280,2013-10-19 07:55:00
3:15 AM,33.8,26.6,75,30.09,10.0,WSW,9.2,-,N/A,,Clear,250,2013-10-19 08:15:00
3:35 AM,33.8,26.6,75,30.08,10.0,West,8.1,-,N/A,,Clear,260,2013-10-19 08:35:00
3:55 AM,33.8,26.6,75,30.08,10.0,West,8.1,-,N/A,,Clear,270,2013-10-19 08:55:00
4:15 AM,33.8,26.6,75,30.08,10.0,WSW,8.1,-,N/A,,Clear,250,2013-10-19 09:15:00
4:35 AM,32.0,26.6,80,30.08,10.0,West,6.9,-,N/A,,Clear,260,2013-10-19 09:35:00
4:55 AM,30.2,26.6,86,30.08,10.0,WSW,6.9,-,N/A,,Clear,250,2013-10-19 09:55:00
5:15 AM,32.0,26.6,80,30.08,10.0,West,8.1,-,N/A,,Clear,260,2013-10-19 10:15:00
5:35 AM,30.2,24.8,80,30.08,10.0,WSW,6.9,-,N/A,,Clear,240,2013-10-19 10:35:00
5:55 AM,32.0,24.8,75,30.08,10.0,WSW,8.1,-,N/A,,Clear,250,2013-10-19 10:55:00
6:15 AM,33.8,26.6,75,30.08,10.0,WSW,9.2,-,N/A,,Clear,250,2013-10-19 11:15:00
6:35 AM,33.8,26.6,75,30.08,10.0,WSW,9.2,-,N/A,,Clear,250,2013-10-19 11:35:00
6:55 AM,30.2,24.8,80,30.08,10.0,WSW,8.1,-,N/A,,Clear,240,2013-10-19 11:55:00
7:15 AM,32.0,26.6,80,30.07,10.0,WSW,9.2,-,N/A,,Clear,240,2013-10-19 12:15:00
7:35 AM,32.0,26.6,80,30.06,10.0,WSW,10.4,-,N/A,,Clear,240,2013-10-19 12:35:00
7:55 AM,32.0,26.6,80,30.06,10.0,WSW,9.2,-,N/A,,Clear,250,2013-10-19 12:55:00
8:15 AM,32.0,26.6,80,30.06,10.0,WSW,5.8,-,N/A,,Clear,250,2013-10-19 13:15:00
8:35 AM,35.6,28.4,75,30.06,10.0,West,9.2,-,N/A,,Clear,260,2013-10-19 13:35:00
8:55 AM,35.6,28.4,75,30.07,10.0,WSW,9.2,-,N/A,,Clear,250,2013-10-19 13:55:00
9:15 AM,37.4,28.4,70,30.07,10.0,WSW,8.1,-,N/A,,Clear,250,2013-10-19 14:15:00
9:35 AM,39.2,30.2,70,30.07,10.0,WSW,12.7,-,0.01,,Clear,250,2013-10-19 14:35:00
9:55 AM,39.2,30.2,70,30.07,10.0,WSW,10.4,-,0.02,,Clear,250,2013-10-19 14:55:00
10:15 AM,42.8,33.8,70,30.07,10.0,WSW,8.1,-,N/A,,Clear,240,2013-10-19 15:15:00
10:35 AM,44.6,33.8,66,30.07,10.0,WSW,11.5,-,0.01,,Clear,240,2013-10-19 15:35:00
10:55 AM,44.6,33.8,66,30.06,10.0,WSW,12.7,-,0.02,,Clear,250,2013-10-19 15:55:00
11:15 AM,48.2,35.6,62,30.05,10.0,WSW,12.7,-,N/A,,Clear,250,2013-10-19 16:15:00
11:35 AM,50.0,35.6,58,30.04,10.0,West,15.0,-,N/A,,Clear,260,2013-10-19 16:35:00
11:55 AM,51.8,37.4,58,30.04,10.0,WSW,15.0,-,N/A,,Clear,250,2013-10-19 16:55:00
12:15 PM,51.8,39.2,62,30.03,10.0,WSW,13.8,-,N/A,,Clear,250,2013-10-19 17:15:00
12:35 PM,53.6,39.2,58,30.02,10.0,WSW,12.7,-,N/A,,Clear,250,2013-10-19 17:35:00
12:55 PM,55.4,39.2,54,30.02,10.0,WSW,12.7,-,N/A,,Clear,250,2013-10-19 17:55:00
1:15 PM,57.2,39.2,51,30.01,10.0,WSW,11.5,-,N/A,,Clear,250,2013-10-19 18:15:00
1:35 PM,59.0,39.2,48,30.00,10.0,WSW,13.8,-,N/A,,Clear,240,2013-10-19 18:35:00
1:55 PM,60.8,41.0,48,29.99,10.0,WSW,12.7,-,N/A,,Clear,240,2013-10-19 18:55:00
2:15 PM,62.6,39.2,42,29.97,10.0,WSW,17.3,20.7,N/A,,Clear,250,2013-10-19 19:15:00
2:35 PM,62.6,39.2,42,29.96,10.0,WSW,17.3,20.7,N/A,,Clear,240,2013-10-19 19:35:00
2:55 PM,64.4,39.2,40,29.96,10.0,West,15.0,20.7,N/A,,Clear,260,2013-10-19 19:55:00
3:15 PM,64.4,39.2,40,29.95,10.0,West,15.0,21.9,N/A,,Clear,260,2013-10-19 20:15:00
3:35 PM,66.2,39.2,37,29.94,10.0,West,17.3,24.2,N/A,,Clear,260,2013-10-19 20:35:00
3:55 PM,66.2,37.4,35,29.94,10.0,West,16.1,21.9,N/A,,Clear,260,2013-10-19 20:55:00
4:15 PM,66.2,37.4,35,29.94,10.0,WSW,13.8,-,N/A,,Clear,250,2013-10-19 21:15:00
4:35 PM,66.2,35.6,32,29.93,10.0,West,15.0,19.6,N/A,,Clear,270,2013-10-19 21:35:00
4:55 PM,66.2,33.8,30,29.92,10.0,West,15.0,-,N/A,,Clear,280,2013-10-19 21:55:00
5:15 PM,66.2,33.8,30,29.92,10.0,West,15.0,-,N/A,,Clear,270,2013-10-19 22:15:00
5:35 PM,66.2,33.8,30,29.92,10.0,West,13.8,-,N/A,,Clear,260,2013-10-19 22:35:00
5:55 PM,64.4,33.8,32,29.91,10.0,West,10.4,-,N/A,,Clear,260,2013-10-19 22:55:00
6:15 PM,62.6,35.6,37,29.91,10.0,West,8.1,-,N/A,,Clear,260,2013-10-19 23:15:00
6:35 PM,60.8,37.4,42,29.91,10.0,WSW,8.1,-,N/A,,Clear,240,2013-10-19 23:35:00
6:55 PM,55.4,37.4,51,29.91,10.0,SW,8.1,-,N/A,,Clear,230,2013-10-19 23:55:00
7:15 PM,53.6,35.6,51,29.91,10.0,SW,8.1,-,N/A,,Clear,230,2013-10-20 00:15:00
7:35 PM,51.8,37.4,58,29.91,10.0,SW,9.2,-,N/A,,Clear,220,2013-10-20 00:35:00
7:55 PM,53.6,37.4,54,29.91,10.0,SW,9.2,-,N/A,,Clear,220,2013-10-20 00:55:00
8:15 PM,51.8,37.4,58,29.91,10.0,SW,11.5,-,N/A,,Clear,230,2013-10-20 01:15:00
8:35 PM,51.8,37.4,58,29.92,10.0,SW,9.2,-,N/A,,Clear,230,2013-10-20 01:35:00
8:55 PM,50.0,37.4,62,29.91,10.0,SW,9.2,-,N/A,,Clear,220,2013-10-20 01:55:00
9:15 PM,46.4,37.4,71,29.91,10.0,SW,4.6,-,N/A,,Clear,220,2013-10-20 02:15:00
9:35 PM,46.4,35.6,66,29.91,10.0,SW,5.8,-,N/A,,Clear,220,2013-10-20 02:35:00
9:55 PM,46.4,35.6,66,29.91,10.0,SSW,6.9,-,N/A,,Clear,210,2013-10-20 02:55:00
10:15 PM,46.4,35.6,66,29.90,10.0,SW,6.9,-,N/A,,Clear,220,2013-10-20 03:15:00
10:35 PM,46.4,35.6,66,29.90,10.0,SW,9.2,-,N/A,,Clear,220,2013-10-20 03:35:00
10:55 PM,46.4,35.6,66,29.90,10.0,SW,10.4,-,N/A,,Clear,220,2013-10-20 03:55:00
11:15 PM,46.4,33.8,62,29.91,10.0,SW,10.4,-,N/A,,Clear,230,2013-10-20 04:15:00
11:35 PM,46.4,33.8,62,29.90,10.0,SW,11.5,-,N/A,,Clear,220,2013-10-20 04:35:00
11:55 PM,46.4,33.8,62,29.90,10.0,SW,11.5,-,N/A,,Clear,220,2013-10-20 04:55:00